Probability
13 10 13 23 19 29 32 32 42 45 42 42 42 39 42 35 23 23 23 19 23 29 29 26 16 26 19 13 13 6 3 0 0 0 0 0 0 0 0 0 0 0 0
10 10 6 6 13 13 16 26 19 29 35 35 29 29 29 26 19 19 16 16 16 13 13 10 6 13 13 10 10 0 0 0 0 0 0 0 0 0 0 0 0 0 0
6 3 3 3 10 10 10 13 13 13 10 23 23 16 23 13 13 16 10 13 13 10 13 10 6 3 3 6 3 3 0 0 0 0 0 0 0 0 0 0 0 0 0
3 3 3 3 3 6 6 6 6 13 6 13 16 19 19 13 13 6 6 3 10 10 10 3 3 3 3 0 0 0 0 0 0 0 0 0 0 0 0 0 0 0 0
3 3 3 3 3 6 3 6 6 6 6 6 10 13 10 6 3 3 0 0 0 0 3 3 3 3 3 3 0 0 0 0 0 0 0 0 0 0 0 0 0 0 0
3 3 3 3 3 3 3 3 6 3 6 3 3 13 6 3 3 0 0 0 0 0 0 0 3 3 3 3 3 3 0 0 0 0 0 0 0 0 0 0 0 0 0
3 3 3 3 3 3 3 3 3 0 3 3 3 0 0 0 0 0 0 0 0 0 0 0 0 0 0 3 3 3 0 0 0 0 0 0 0 0 0 0 0 0 0
0 0 3 3 3 3 3 3 0 0 0 0 0 0 0 0 0 0 0 0 0 0 0 0 0 0 0 0 0 0 0 0 0 0 0 0 0 0 0 0 0 0 0
0 0 0 3 0 3 0 0 0 0 0 0 0 0 0 0 0 0 0 0 0 0 0 0 0 0 0 0 0 0 0 0 0 0 0 0 0 0 0 0 0 0 0
0 0 0 0 0 0 0 0 0 0 0 0 0 0 0 0 0 0 0 0 0 0 0 0 0 0 0 0 0 0 0 0 0 0 0 0 0 0 0 0 0 0 0
0 0 0 0 0 0 0 0 0 0 0 0 0 0 0 0 0 0 0 0 0 0 0 0 0 0 0 0 0 0 0 0 0 0 0 0 0 0 0 0 0 0 0
0 0 0 0 0 0 0 0 0 0 0 0 0 0 0 0 0 0 0 0 0 0 0 0 0 0 0 0 0 0 0 0 0 0 0 0 0 0 0 0 0 0 0
0 0 0 0 0 0 0 0 0 0 0 0 0 0 0 0 0 0 0 0 0 0 0 0 0 0 0 0 0 0 0 0 0 0 0 0 0 0 0 0 0 0 0
0 0 0 0 0 0 0 0 0 0 0 0 0 0 0 0 0 0 0 0 0 0 0 0 0 0 0 0 0 0 0 0 0 0 0 0 0 0 0 0 0 0 0
0 0 0 0 0 0 0 0 0 0 0 0 0 0 0 0 0 0 0 0 0 0 0 0 0 0 0 0 0 0 0 0 0 0 0 0 0 0 0 0 0 0 0
0 0 0 0 0 0 0 0 0 0 0 0 0 0 0 0 0 0 0 0 0 0 0 0 0 0 0 0 0 0 0 0 0 0 0 0 0 0 0 0 0 0 0
0 0 0 0 0 0 0 0 0 0 0 0 0 0 0 0 0 0 0 0 0 0 0 0 0 0 0 0 0 0 0 0 0 0 0 0 0 0 0 0 0 0 0
0 0 0 0 0 0 0 0 0 0 0 0 0 0 0 0 0 0 0 0 0 0 0 0 0 0 0 0 0 0 0 0 0 0 0 0 0 0 0 0 0 0 0
0 0 0 0 0 0 0 0 0 0 0 0 0 0 0 0 0 0 0 0 0 0 0 0 0 0 0 0 0 0 0 0 0 0 0 0 0 0 0 0 0 0 0
0 0 0 0 0 0 0 0 0 0 0 0 0 0 0 0 0 0 0 0 0 0 0 0 0 0 0 0 0 0 0 0 0 0 0 0 0 0 0 0 0 0 0
0 0 0 0 0 0 0 0 0 0 0 0 0 0 0 0 0 0 0 0 0 0 0 0 0 0 0 0 0 0 0 0 0 0 0 0 0 0 0 0 0 0 0
0 0 0 0 0 0 0 0 0 0 0 0 0 0 0 0 0 0 0 0 0 0 0 0 0 0 0 0 0 0 0 0 0 0 0 0 0 0 0 0 0 0 0
0 0 0 0 0 0 0 0 0 0 0 0 0 0 0 0 0 0 0 0 0 0 0 0 0 0 0 0 0 0 0 0 0 0 0 0 0 0 0 0 0 0 0
0 0 0 0 0 0 0 0 0 0 0 0 0 0 0 0 0 0 0 0 0 0 0 0 0 0 0 0 0 0 0 0 0 0 0 0 0 0 0 0 0 0 0
0 0 0 0 0 0 0 0 0 0 0 0 0 0 0 0 0 0 0 0 0 0 0 0 0 0 0 0 0 0 0 0 0 0 0 0 0 0 0 0 0 0 0
0 0 0 0 0 0 0 0 0 0 0 0 0 0 0 0 0 0 0 0 0 0 0 0 0 0 0 0 0 0 0 0 0 0 0 0 0 0 0 0 0 0 0
Height
5841 5843 5842 5842 5842 5843 5842 5844 5844 5845 5845 5847 5848 5850 5851 5851 5850 5851 5851 5853 5853 5853 5853 5853 5853 5853 5853 5852 5852 5851 5850 5849 5847 5846 5844 5843 5841 5840 5838 5837 5835 5834 5832
5836 5837 5836 5835 5834 5835 5836 5837 5836 5836 5839 5841 5843 5844 5845 5845 5845 5846 5847 5847 5847 5847 5847 5847 5847 5846 5846 5846 5845 5844 5843 5842 5840 5839 5837 5836 5835 5832 5831 5829 5828 5826 5825
5831 5831 5830 5829 5829 5830 5831 5831 5829 5829 5832 5835 5836 5838 5839 5840 5840 5841 5841 5841 5841 5841 5840 5839 5838 5839 5839 5838 5838 5836 5835 5834 5833 5832 5830 5828 5826 5825 5824 5822 5820 5818 5817
5825 5825 5825 5823 5824 5824 5826 5825 5825 5826 5827 5829 5831 5832 5833 5834 5834 5834 5834 5834 5834 5834 5833 5833 5831 5831 5830 5830 5829 5828 5827 5826 5825 5824 5822 5821 5819 5817 5815 5814 5811 5809 5807
5819 5819 5820 5818 5817 5818 5819 5820 5820 5821 5822 5823 5824 5826 5826 5827 5827 5827 5827 5827 5827 5826 5826 5825 5824 5824 5823 5822 5821 5820 5819 5817 5816 5815 5813 5812 5810 5808 5806 5804 5802 5799 5797
5812 5812 5812 5812 5813 5813 5814 5814 5814 5815 5816 5817 5818 5819 5819 5819 5820 5819 5819 5819 5819 5819 5818 5817 5817 5816 5815 5813 5812 5811 5811 5809 5807 5806 5804 5803 5800 5798 5796 5794 5791 5788 5786
5805 5805 5805 5805 5805 5806 5808 5809 5808 5809 5810 5811 5812 5812 5812 5812 5812 5811 5811 5811 5811 5811 5810 5809 5808 5807 5806 5805 5804 5802 5801 5800 5798 5796 5794 5792 5789 5787 5785 5783 5780 5777 5774
5798 5798 5799 5799 5798 5799 5800 5802 5802 5802 5803 5803 5804 5804 5804 5804 5804 5804 5803 5803 5802 5801 5800 5800 5799 5798 5796 5795 5794 5792 5791 5789 5787 5785 5783 5780 5778 5776 5774 5772 5769 5765 5762
5791 5792 5792 5792 5792 5793 5794 5794 5795 5795 5795 5796 5796 5796 5796 5795 5795 5795 5795 5794 5793 5791 5791 5790 5789 5788 5786 5785 5783 5782 5780 5778 5776 5775 5772 5769 5767 5764 5762 5760 5757 5754 5750
5784 5784 5784 5785 5786 5786 5787 5787 5787 5787 5787 5788 5788 5787 5786 5786 5786 5786 5785 5785 5784 5782 5781 5781 5779 5778 5776 5774 5772 5771 5769 5767 5765 5763 5760 5757 5754 5752 5750 5747 5744 5741 5738
5778 5778 5777 5778 5779 5779 5779 5779 5778 5778 5779 5779 5779 5779 5778 5778 5778 5777 5776 5776 5775 5773 5772 5771 5769 5767 5765 5763 5762 5760 5758 5756 5754 5751 5748 5746 5743 5740 5737 5735 5732 5729 5725
5772 5771 5771 5771 5771 5771 5771 5771 5770 5770 5770 5770 5770 5770 5770 5769 5769 5768 5767 5766 5765 5764 5762 5760 5758 5756 5755 5753 5751 5749 5746 5744 5742 5739 5737 5734 5731 5728 5725 5722 5719 5716 5713
5765 5764 5764 5763 5763 5763 5763 5763 5762 5762 5761 5761 5761 5761 5761 5760 5760 5759 5758 5757 5755 5754 5752 5750 5748 5746 5744 5742 5740 5737 5735 5733 5730 5728 5725 5723 5720 5717 5713 5710 5707 5704 5701
5758 5758 5757 5757 5756 5756 5755 5755 5754 5754 5754 5753 5753 5752 5752 5752 5751 5750 5749 5747 5745 5744 5742 5740 5738 5736 5734 5732 5729 5727 5724 5722 5719 5717 5714 5712 5709 5705 5702 5699 5696 5693 5690
5752 5751 5750 5749 5749 5748 5748 5747 5747 5746 5746 5745 5744 5744 5743 5743 5742 5740 5739 5738 5736 5734 5732 5731 5729 5726 5724 5722 5719 5717 5714 5712 5709 5707 5704 5701 5698 5695 5692 5689 5685 5682 5679
5746 5745 5744 5743 5742 5741 5741 5740 5739 5739 5738 5737 5736 5735 5735 5734 5733 5732 5730 5728 5727 5725 5723 5722 5720 5718 5715 5713 5710 5708 5705 5702 5699 5697 5694 5691 5688 5685 5682 5679 5676 5674 5670
5740 5739 5738 5736 5735 5734 5734 5733 5732 5731 5730 5730 5729 5728 5727 5726 5725 5723 5722 5720 5718 5717 5715 5713 5712 5709 5707 5704 5702 5699 5696 5694 5691 5688 5685 5682 5679 5677 5674 5671 5668 5665 5662
5733 5732 5731 5730 5729 5728 5727 5726 5725 5724 5723 5722 5722 5720 5719 5718 5717 5716 5714 5712 5711 5709 5707 5706 5704 5702 5699 5696 5694 5691 5689 5686 5683 5681 5678 5675 5672 5669 5666 5664 5661 5658 5656
5728 5727 5725 5724 5723 5722 5721 5720 5719 5718 5717 5716 5715 5713 5712 5711 5710 5708 5707 5705 5704 5702 5700 5698 5696 5694 5692 5689 5687 5684 5682 5679 5677 5674 5671 5668 5666 5663 5660 5657 5655 5652 5649
5723 5721 5720 5719 5718 5716 5715 5714 5713 5712 5711 5710 5708 5707 5706 5705 5703 5702 5701 5699 5697 5695 5693 5691 5689 5687 5685 5683 5681 5678 5676 5673 5670 5668 5665 5663 5660 5657 5654 5651 5649 5646 5643
5718 5716 5715 5714 5713 5712 5710 5709 5708 5707 5706 5704 5703 5702 5700 5699 5698 5696 5695 5693 5691 5689 5687 5685 5683 5681 5680 5677 5675 5672 5670 5667 5665 5663 5660 5657 5655 5652 5649 5647 5644 5642 5639
5714 5712 5711 5709 5708 5707 5706 5705 5703 5702 5701 5700 5698 5697 5695 5694 5692 5691 5689 5687 5685 5683 5681 5680 5678 5676 5674 5672 5670 5668 5665 5663 5660 5658 5656 5653 5650 5648 5645 5643 5641 5638 5636
5709 5708 5706 5705 5704 5703 5702 5701 5700 5698 5697 5696 5694 5693 5691 5689 5688 5686 5684 5682 5680 5679 5677 5675 5674 5672 5670 5668 5666 5663 5661 5659 5657 5654 5652 5649 5647 5644 5642 5640 5638 5636 5634
5706 5704 5703 5701 5700 5699 5698 5697 5696 5695 5693 5692 5691 5689 5687 5686 5684 5682 5680 5678 5677 5675 5673 5671 5670 5668 5666 5664 5662 5660 5658 5656 5654 5651 5649 5647 5645 5643 5640 5638 5636 5634 5632
5703 5701 5699 5698 5697 5696 5695 5693 5692 5691 5690 5688 5687 5686 5684 5682 5681 5679 5677 5675 5674 5672 5670 5669 5667 5665 5663 5661 5659 5657 5655 5653 5652 5650 5648 5646 5643 5641 5639 5637 5635 5632 5630
5701 5699 5697 5695 5694 5693 5692 5690 5689 5688 5687 5685 5684 5683 5681 5680 5678 5676 5675 5673 5672 5670 5668 5666 5665 5663 5661 5659 5657 5656 5654 5652 5650 5648 5646 5644 5642 5640 5638 5636 5633 5631 5629
Wind_Speed
29 30 29 30 28 27 25 22 21 20 18 18 18 19 19 19 19 18 18 18 18 19 20 19 18 19 20 21 21 22 23 23 23 24 24 25 26 26 27 27 27 28 29
30 32 32 30 28 26 23 22 22 22 20 19 18 19 21 21 21 20 20 20 21 21 21 21 22 21 21 22 23 23 23 24 25 26 27 27 27 28 28 28 30 31 32
29 31 31 30 29 26 24 23 23 21 22 22 23 22 23 23 23 23 22 22 23 24 24 25 25 24 24 25 25 25 26 26 26 27 27 28 28 28 30 31 32 33 34
28 28 28 28 28 26 26 24 22 21 22 23 24 24 24 23 23 24 24 24 25 25 26 26 26 26 27 27 28 28 29 30 30 29 29 29 30 31 32 33 35 36 37
28 29 29 29 27 26 26 24 22 22 22 23 24 25 25 26 26 26 25 26 27 27 28 28 28 29 29 29 30 30 30 32 31 31 31 31 33 34 36 36 37 39 40
28 29 29 27 27 27 27 26 25 24 24 24 25 26 27 28 28 28 28 28 28 29 29 30 30 30 30 32 32 32 33 31 31 33 34 35 36 37 38 39 40 41 42
28 29 29 28 28 29 29 28 26 26 25 26 27 28 29 30 30 30 30 30 30 30 31 31 32 33 33 33 34 34 34 34 35 35 37 38 39 39 39 41 42 44 45
26 27 28 28 28 29 29 28 27 27 27 27 28 30 30 31 32 32 32 32 33 34 34 35 35 36 36 36 37 37 37 37 37 38 39 40 40 41 41 42 43 44 45
28 27 28 28 28 28 29 29 29 29 28 29 30 31 31 31 32 33 33 33 35 36 36 37 38 38 39 39 40 39 40 40 39 40 41 42 42 42 42 43 44 45 47
27 29 28 29 28 28 28 29 30 30 30 31 32 32 32 32 32 33 34 35 36 37 38 39 39 39 39 39 40 40 41 41 41 42 43 43 43 44 45 45 45 46 48
25 26 26 28 28 28 28 29 29 29 30 31 32 33 34 34 34 35 35 36 37 38 39 39 39 39 39 40 41 41 42 42 43 43 42 42 43 43 44 44 44 45 45
26 26 26 26 27 27 28 28 29 30 31 32 33 33 34 34 35 36 36 37 38 39 39 39 39 39 39 40 40 41 42 42 41 41 41 42 42 42 43 44 44 44 44
24 23 24 24 25 26 27 27 28 29 30 32 33 33 34 34 35 35 36 37 38 39 39 39 40 40 40 40 41 41 40 40 40 40 41 41 42 42 43 43 43 43 43
22 23 23 24 25 26 26 27 28 29 30 31 32 33 34 34 35 36 36 37 37 37 37 38 38 38 39 39 39 39 38 39 39 39 39 39 40 40 40 40 40 40 39
20 21 22 23 24 25 25 26 27 27 28 29 30 31 32 34 34 34 34 34 35 35 36 36 36 36 36 36 36 36 37 37 38 37 37 37 38 38 37 37 36 36 36
20 19 20 21 22 23 24 25 25 25 26 26 27 29 30 30 30 31 32 32 33 33 33 33 34 34 34 34 34 35 35 34 35 35 35 35 34 33 33 33 33 33 33
19 19 18 19 21 22 23 23 24 25 25 26 27 27 27 27 28 29 30 30 30 30 30 31 31 32 31 31 31 31 31 31 31 31 30 30 30 30 30 29 29 29 29
18 19 19 19 20 20 21 22 23 23 24 24 24 25 25 26 27 27 27 27 27 28 28 29 29 28 28 28 28 28 28 28 28 27 27 27 27 27 26 26 26 26 27
17 18 18 18 19 19 21 21 22 22 22 22 23 23 24 24 24 24 24 24 24 25 26 26 25 25 25 25 26 26 25 25 25 25 25 24 24 23 23 24 24 25 25
16 16 16 17 17 17 18 19 20 20 21 21 22 22 22 21 21 21 22 22 23 23 23 23 23 23 23 23 23 23 23 23 23 22 22 22 22 22 22 22 22 22 21
15 14 15 15 15 15 16 16 16 17 18 18 18 19 19 19 20 20 20 20 21 21 21 21 21 21 21 21 21 21 21 21 20 20 20 20 20 20 19 19 18 18 17
13 13 13 13 14 14 14 14 15 15 15 15 16 17 17 18 18 18 18 19 19 19 19 19 19 19 19 19 18 18 18 17 17 18 18 18 17 17 17 16 15 15 14
12 12 12 12 12 12 13 13 13 13 13 13 14 14 15 15 15 16 16 16 16 16 16 16 17 17 17 16 16 16 16 15 15 15 15 15 15 13 13 12 13 12 12
10 10 10 9 10 10 10 11 11 12 12 12 12 13 13 13 13 13 13 13 13 13 13 14 14 14 14 13 13 13 13 13 13 13 13 13 11 11 11 11 11 11 11
10 9 8 8 8 8 8 9 10 10 10 10 11 11 12 12 12 12 12 11 11 11 11 12 12 12 12 11 10 10 9 9 10 11 11 11 11 11 11 11 10 10 10
9 8 7 7 7 7 7 7 8 8 8 9 9 10 10 10 10 10 10 10 10 10 10 10 10 10 9 8 8 8 8 9 10 10 10 10 11 11 11 11 11 10 10
Wind_Direction
254 258 261 262 259 258 253 253 249 242 239 240 241 243 245 245 246 249 255 259 264 266 267 268 271 272 274 276 278 281 279 282 281 282 284 283 284 285 285 283 281 281 282
256 259 262 261 260 255 250 256 250 243 242 245 244 245 245 248 251 252 257 261 265 267 270 272 271 274 277 279 279 280 280 279 278 281 282 283 282 282 282 282 281 281 280
257 260 261 261 264 257 253 253 251 249 245 246 249 249 249 252 255 258 261 264 267 269 272 273 273 274 278 281 281 281 281 280 280 280 282 284 282 281 281 281 280 279 280
259 262 264 265 265 262 259 254 253 253 250 252 251 252 252 255 259 262 265 268 271 273 275 277 277 276 278 280 281 281 283 282 281 280 280 282 283 281 280 280 280 280 279
258 262 265 266 265 262 261 256 255 254 252 253 255 258 258 260 263 265 268 270 272 274 277 278 278 277 279 280 281 284 284 284 282 282 281 282 283 282 281 280 280 281 280
260 263 265 264 262 262 261 261 262 258 259 261 262 263 264 265 267 269 270 272 274 276 278 278 277 279 281 282 283 283 283 283 283 282 282 283 284 282 281 280 281 281 281
261 264 262 264 264 263 263 262 261 261 264 265 266 266 268 269 272 274 274 274 276 277 278 280 281 283 284 285 285 283 284 284 283 282 282 282 282 282 281 280 281 281 281
261 262 261 263 264 263 262 263 266 265 265 266 268 269 269 270 272 274 275 276 278 279 279 281 283 284 285 286 285 286 287 286 284 283 283 282 281 282 282 282 282 283 283
261 264 265 265 266 267 266 265 266 267 267 269 270 271 271 271 272 272 274 276 277 278 280 281 283 284 284 284 285 286 286 286 285 284 284 284 284 283 283 283 282 283 283
264 265 266 266 266 267 267 267 266 266 267 268 270 271 271 272 272 273 275 276 278 279 281 282 282 283 283 283 284 285 286 286 286 286 285 285 286 285 284 284 283 283 283
275 274 271 267 267 266 267 269 267 268 268 269 269 270 271 273 273 274 275 276 277 278 279 281 282 282 284 285 285 286 285 285 286 286 286 286 287 286 285 285 284 284 285
281 277 273 270 267 266 268 270 270 270 269 269 270 270 271 272 273 274 275 276 277 278 280 281 284 285 285 285 285 286 286 286 286 286 286 285 286 286 286 286 286 286 287
281 278 273 269 268 269 270 270 270 270 271 271 270 271 271 272 273 274 276 277 278 280 282 283 284 285 286 286 285 285 286 286 287 287 287 286 286 286 286 286 286 286 287
286 281 279 275 272 271 271 270 271 271 271 271 270 271 272 273 275 277 278 279 280 281 281 283 284 285 286 286 286 286 286 286 287 287 287 287 288 288 287 288 288 288 288
287 281 276 273 272 271 272 272 272 272 272 271 271 271 272 274 275 277 279 280 281 281 282 283 284 285 285 286 286 286 286 286 286 287 287 288 289 289 289 289 289 289 290
291 286 279 274 276 275 275 276 275 276 276 276 274 274 275 276 277 278 280 281 281 281 282 283 283 284 285 286 286 287 287 288 288 288 289 290 290 290 290 290 291 291 292
287 287 282 278 280 280 277 276 277 278 278 278 277 277 277 277 278 281 281 280 281 282 282 283 284 286 287 287 288 290 290 291 291 291 291 292 292 292 291 292 292 293 295
289 288 286 284 282 282 280 278 279 280 280 280 279 278 278 278 280 281 281 280 281 282 283 285 286 287 288 289 291 292 293 293 293 293 294 295 295 294 295 295 295 296 298
290 289 287 285 283 282 280 278 278 279 280 281 281 282 281 281 282 283 283 283 283 284 285 286 286 288 290 292 293 294 294 293 294 294 295 296 297 297 297 297 298 299 301
292 291 288 284 283 283 282 281 280 280 281 282 283 283 284 283 284 285 286 285 286 286 287 287 287 289 291 293 293 293 294 295 295 296 298 300 300 300 301 302 302 303 305
294 292 290 285 284 284 284 283 283 283 284 286 286 287 287 286 286 286 287 287 288 288 288 289 290 291 293 293 293 295 297 298 298 299 301 303 303 304 305 306 306 308 310
295 294 291 287 284 282 284 286 287 289 287 288 290 291 290 288 288 288 291 292 292 291 290 291 292 293 294 295 296 299 302 302 303 304 306 307 308 308 309 311 313 315 317
299 295 292 290 286 283 284 284 286 289 291 290 292 292 291 290 291 293 295 296 294 293 293 294 296 298 299 299 300 301 303 305 307 310 312 314 315 317 319 322 324 323 323
308 303 298 294 291 288 288 288 288 290 293 294 294 295 296 297 298 299 299 299 299 298 298 300 301 302 302 303 305 307 309 311 313 315 319 322 325 327 329 331 331 330 329
324 318 309 303 301 298 295 293 294 294 296 297 299 299 299 301 303 303 303 305 305 305 306 306 307 308 308 311 314 315 318 322 325 326 327 329 331 333 334 333 333 333 333
337 332 325 316 310 305 302 302 303 303 304 306 306 305 306 308 308 307 308 310 312 313 315 317 318 318 319 322 324 325 327 328 330 331 332 334 335 335 334 334 334 335 337